Home > Time Zones > World Clock > Weather > Serbia > Niš > Past weeks

Flag for Serbia Weather past 2 weeks in Niš, Serbia

Now
46 °F

Clear.


Feels Like: 41 °F
Forecast: 36 / 48 °F
Wind: 12 mph from Northwest

Location: Nis Airport

Current Time: Dec 17, 2014 at 9:26:49 PM

Latest Report: Dec 17, 2014 at 9:00 PM


Visibility: 10 mi

Pressure: 29.95 "Hg

Humidity: 87%

Dew point: 43 °F

Location of NišLocation

Historic Weather in Niš — Graph

°F

Niš temperature yesterday

Maximum temperature yesterday: 54 °F (at 1:00 PM)
Minimum temperature yesterday: 34 °F (at 4:30 AM)
Average temperature yesterday: 43 °F

Past Weeks' High & Low Weather Summary

 TemperatureHumidityPressure
High55 °F (Dec 17, 12:30 PM)100% (Dec 5, 1:30 AM)30.33 "Hg (Dec 5, 1:30 AM)
Low25 °F (Dec 13, 3:30 AM)47% (Dec 16, 1:00 PM)29.86 "Hg (Dec 9, 4:30 AM)
Average39 °F88%30.10 "Hg
* Reported Dec 2 8:00 PM — Dec 17 8:30 PM, Niš, Weather by CustomWeather, © 2014

Note: Actual official high and low records may vary slightly from our data, if they occured in-between our weather recording intervals... More about our weather records

Advertising

Niš weather history for previous 24 hours

 ConditionsComfort  
Time TempWeatherWind HumidityBarometerVisibility
8:30 PM
Dec 17
46 °FPassing clouds.13 mph87%29.95 "HgN/A
8:00 PM45 °FClear.8 mph93%29.92 "Hg10 mi
7:30 PM46 °FClear.5 mph87%29.92 "Hg10 mi
7:00 PM48 °FClear.2 mph82%29.92 "Hg10 mi
6:30 PM48 °FClear.2 mph82%29.92 "Hg10 mi
6:00 PM48 °FPassing clouds.5 mph87%29.92 "HgN/A
5:30 PM50 °FPassing clouds.3 mph82%29.92 "HgN/A
5:00 PM50 °FPassing clouds.1 mph76%29.89 "HgN/A
4:30 PM50 °FPassing clouds.1 mph82%29.89 "HgN/A
4:00 PM52 °FPassing clouds.1 mph77%29.89 "HgN/A
3:30 PM54 °FPassing clouds.3 mph72%29.89 "HgN/A
3:00 PM54 °FPassing clouds.2 mph72%29.89 "HgN/A
2:30 PM55 °FPassing clouds.5 mph67%29.89 "HgN/A
2:00 PM55 °FPassing clouds.6 mph67%29.89 "HgN/A
1:30 PM55 °FPassing clouds.3 mph67%29.89 "HgN/A
1:00 PM55 °FPassing clouds.6 mph67%29.92 "HgN/A
12:30 PM55 °FPassing clouds.6 mph67%29.92 "HgN/A
12:00 PM54 °FPassing clouds.8 mph72%29.92 "HgN/A
11:30 AM54 °FPassing clouds.8 mph72%29.95 "HgN/A
11:00 AM52 °FPassing clouds.7 mph77%29.95 "HgN/A
10:30 AM52 °FPassing clouds.6 mph77%29.95 "HgN/A
10:00 AM50 °FPassing clouds.6 mph76%29.98 "HgN/A
9:30 AM48 °FPassing clouds.5 mph82%29.98 "HgN/A
9:00 AM45 °FPassing clouds.3 mph87%29.98 "HgN/A
8:30 AM43 °FPassing clouds.5 mph87%29.98 "HgN/A
8:00 AM41 °FPassing clouds.3 mph93%29.95 "HgN/A
7:30 AM39 °FPassing clouds.6 mph100%29.95 "HgN/A
7:00 AM41 °FPassing clouds.2 mph93%29.95 "HgN/A
6:30 AM41 °FPassing clouds.3 mph93%29.95 "HgN/A
6:00 AM41 °FClear.3 mph87%29.95 "Hg10 mi
5:30 AM39 °FClear.1 mph93%29.92 "Hg10 mi
5:00 AM39 °FPassing clouds.1 mph93%29.92 "HgN/A
4:30 AM41 °FClear.2 mph87%29.92 "Hg10 mi
4:00 AM41 °FClear.7 mph87%29.92 "Hg10 mi
3:30 AM43 °FClear.6 mph87%29.92 "Hg10 mi
3:00 AM41 °FPassing clouds.5 mph93%29.95 "HgN/A
2:30 AM43 °FPassing clouds.5 mph87%29.95 "HgN/A
2:00 AM43 °FPassing clouds.5 mph87%29.95 "HgN/A
1:30 AM43 °FPassing clouds.5 mph87%29.95 "HgN/A
1:00 AM45 °FPassing clouds.6 mph81%29.95 "HgN/A
12:30 AM45 °FPassing clouds.5 mph81%29.95 "HgN/A
12:00 AM45 °FLight rain. Passing clouds.3 mph81%29.98 "HgN/A
11:30 PM
Dec 16
45 °FPassing clouds.1 mph76%29.98 "HgN/A
11:00 PM45 °FPassing clouds.6 mph76%29.98 "HgN/A
10:30 PM45 °FPassing clouds.7 mph76%29.98 "HgN/A
10:00 PM46 °FPassing clouds.6 mph71%29.98 "HgN/A
9:30 PM46 °FPassing clouds.6 mph71%29.98 "HgN/A
9:00 PM50 °FPassing clouds.7 mph62%29.98 "HgN/A
Weather by CustomWeather, © 2014

See weather overviewHow to use our weather pages